User: anonymous   Login
Location: Unspecified
(0.0000°N, 0.0000°E)
Time: 11:58:29
(UTC+00:00)
Language:

SO-67 - Orbit

View from above orbital plane
View from above orbital plane
View from above satellite
View from above satellite

Ground track
Ground track

The orbit data is extracted from the following two-line orbital elements,

1 35870U 09049F   15182.10605113  .00006364  00000-0  15004-3 0  9991
2 35870 097.1349 198.1353 0003048 121.6454 280.5305 15.42241255322265
Epoch (UTC): 01 July 2015 02:32:42
Eccentricity: 0.0003048
inclination: 97.1349°
perigee height: 437 km
apogee height: 441 km
right ascension of ascending node: 198.1353°
argument of perigee: 121.6454°
revolutions per day: 15.42241255
mean anomaly at epoch: 280.5305°
orbit number at epoch: 32226

The dashed part of the orbit path shows where the satellite is in the earth's shadow,  

DLR